FW8022 Weather Reports


Display with metric or nautical units.
time (UTC)temp
F
wind
direction
speed
MPH
gust
MPH
rain 1hr
in
rain 24hr
in
rain mn
in
humidity
%
barometer
mb
20260904232038 64 281 2.0 7.0 0.00 0.22 0.01 83 1013.5
20260904231552 64 319 2.0 7.0 0.00 0.22 0.01 82 1013.6
20260904231037 65 265 3.0 7.0 0.00 0.22 0.01 81 1013.6
20260904230537 65 215 2.0 7.0 0.00 0.22 0.01 82 1013.6
20260904225536 64 258 2.0 6.0 0.00 0.22 0.01 82 1013.8
20260904225036 65 257 3.0 7.0 0.00 0.22 0.01 83 1013.8
20260904224555 65 240 2.0 7.0 0.00 0.22 0.01 81 1013.9
20260904224038 64 275 3.0 8.0 0.00 0.22 0.01 83 1013.9
20260904223539 64 297 2.0 8.0 0.00 0.22 0.01 82 1014.0
20260904223056 65 271 3.0 8.0 0.00 0.22 0.01 82 1014.0
20260904222538 65 313 2.0 8.0 0.00 0.22 0.01 81 1014.0
20260904222041 65 259 2.0 7.0 0.00 0.22 0.01 81 1014.1
20260904221558 65 235 3.0 8.0 0.00 0.22 0.01 81 1014.0
20260904221036 65 234 2.0 8.0 0.00 0.22 0.01 82 1014.0
20260904220536 65 266 3.0 8.0 0.00 0.22 0.01 82 1014.0
20260904220054 65 221 2.0 6.0 0.00 0.22 0.01 83 1014.0
20260904215537 65 281 2.0 6.0 0.00 0.22 0.01 83 1014.0
20260904215037 65 226 2.0 5.0 0.00 0.22 0.01 83 1014.0
20260904214604 65 212 2.0 6.0 0.00 0.22 0.01 83 1014.1
20260904214037 65 227 2.0 6.0 0.00 0.22 0.01 83 1014.1
20260904213538 65 213 3.0 6.0 0.00 0.22 0.01 82 1014.1
20260904213056 65 180 3.0 7.0 0.00 0.22 0.01 83 1014.1
20260904212539 64 178 2.0 7.0 0.00 0.22 0.01 82 1014.2
20260904212036 65 241 3.0 7.0 0.00 0.22 0.01 82 1014.1
20260904211558 64 286 2.0 5.0 0.00 0.22 0.01 83 1014.1
20260904211040 64 202 2.0 6.0 0.00 0.22 0.01 82 1014.1
20260904210535 65 237 3.0 6.0 0.00 0.22 0.01 82 1014.1
20260904210055 65 298 3.0 7.0 0.00 0.22 0.01 82 1014.1
20260904205539 65 236 2.0 7.0 0.00 0.22 0.01 82 1014.1
20260904205036 64 244 2.0 6.0 0.00 0.22 0.01 82 1014.2
20260904204550 65 223 2.0 8.0 0.00 0.22 0.01 82 1014.1
20260904204038 64 241 3.0 8.0 0.00 0.22 0.01 82 1014.1
20260904203540 64 293 2.0 5.0 0.00 0.22 0.01 82 1014.2
20260904203101 65 198 2.0 5.0 0.00 0.22 0.01 81 1014.1
20260904202537 65 214 2.0 4.0 0.00 0.22 0.01 83 1014.1
20260904202037 64 184 2.0 7.0 0.00 0.22 0.01 84 1014.0
20260904201555 64 240 2.0 7.0 0.00 0.22 0.01 84 1013.9
20260904201037 64 281 1.0 6.0 0.00 0.22 0.01 84 1013.9
20260904200536 63 293 2.0 6.0 0.00 0.22 0.01 83 1013.9
20260904195539 64 281 2.0 7.0 0.00 0.22 0.01 84 1013.8
20260904195036 63 0 2.0 7.0 0.00 0.22 0.01 84 1013.8
20260904194555 63 265 2.0 7.0 0.00 0.22 0.01 84 1013.8
20260904194037 63 237 2.0 6.0 0.00 0.22 0.01 84 1013.8
20260904193533 63 196 3.0 6.0 0.00 0.22 0.01 83 1013.8
20260904193056 63 206 1.0 5.0 0.00 0.22 0.01 85 1013.9
20260904192536 63 223 2.0 5.0 0.00 0.22 0.01 86 1013.8
20260904192038 62 256 2.0 5.0 0.00 0.22 0.01 86 1013.8
20260904191551 62 234 1.0 5.0 0.00 0.22 0.01 86 1014.0
20260904191037 62 234 2.0 5.0 0.00 0.22 0.01 86 1013.9
20260904190537 62 221 3.0 5.0 0.00 0.22 0.01 86 1013.9
20260904190051 62 234 2.0 5.0 0.00 0.22 0.01 87 1013.9
20260904185536 61 213 2.0 5.0 0.00 0.22 0.01 88 1013.9
20260904185036 61 235 2.0 4.0 0.00 0.22 0.01 87 1013.9
20260904184552 62 224 2.0 4.0 0.00 0.22 0.01 88 1013.8
20260904184037 61 223 1.0 4.0 0.00 0.22 0.01 90 1013.8
20260904183537 60 282 2.0 4.0 0.00 0.22 0.01 90 1013.9
20260904183054 60 186 1.0 3.0 0.00 0.22 0.01 91 1013.9
20260904182537 60 252 1.0 3.0 0.00 0.22 0.01 92 1013.8
20260904182034 60 234 1.0 2.0 0.00 0.22 0.01 92 1013.8
20260904181555 60 0 1.0 3.0 0.00 0.22 0.01 93 1013.8
20260904181039 59 188 0.0 3.0 0.00 0.22 0.01 93 1013.7
20260904180537 59 188 0.0 3.0 0.00 0.22 0.01 94 1013.7
20260904180058 59 230 1.0 3.0 0.00 0.22 0.01 95 1013.7
20260904175535 58 243 1.0 3.0 0.00 0.22 0.01 95 1013.8
20260904175036 58 0 1.0 4.0 0.00 0.22 0.01 95 1013.7
20260904174606 58 240 1.0 4.0 0.00 0.22 0.01 95 1013.7
20260904174036 58 240 1.0 4.0 0.00 0.22 0.01 95 1013.7
20260904173541 58 279 0.0 3.0 0.00 0.22 0.01 96 1013.7
20260904173101 58 293 2.0 3.0 0.00 0.22 0.01 96 1013.7
20260904172537 58 202 1.0 4.0 0.00 0.22 0.01 96 1013.7
20260904172035 58 180 1.0 4.0 0.00 0.22 0.01 96 1013.7
20260904171558 57 197 0.0 3.0 0.00 0.22 0.01 96 1013.6
20260904171037 58 271 1.0 3.0 0.00 0.22 0.01 96 1013.6
20260904170537 57 169 1.0 2.0 0.00 0.22 0.01 96 1013.5
20260904170057 57 293 0.0 2.0 0.00 0.22 0.01 96 1013.5
20260904165537 57 293 0.0 3.0 0.00 0.22 0.01 96 1013.4
20260904165034 57 0 1.0 3.0 0.00 0.22 0.01 96 1013.4
20260904164554 58 35 0.0 3.0 0.00 0.22 0.01 96 1013.4
20260904164036 57 259 0.0 3.0 0.00 0.22 0.01 96 1013.4
20260904163536 57 259 0.0 3.0 0.00 0.22 0.01 96 1013.4
20260904163050 57 259 1.0 3.0 0.00 0.22 0.01 96 1013.2
20260904162536 57 259 0.0 3.0 0.00 0.22 0.01 96 1013.1
20260904162039 57 259 0.0 2.0 0.00 0.22 0.01 96 1013.1
20260904161548 57 259 0.0 2.0 0.00 0.22 0.01 96 1013.0
20260904161035 57 0 0.0 2.0 0.00 0.22 0.01 96 1013.0
20260904160536 57 259 1.0 2.0 0.00 0.22 0.01 96 1013.1
20260904160100 57 0 0.0 1.0 0.00 0.22 0.01 96 1013.2
20260904155539 57 0 0.0 3.0 0.00 0.22 0.01 96 1013.2
20260904155035 57 0 0.0 3.0 0.00 0.22 0.01 96 1013.1
20260904154554 57 281 0.0 3.0 0.00 0.22 0.01 96 1013.0
20260904154036 57 0 1.0 3.0 0.00 0.22 0.01 96 1013.0
20260904153536 57 289 0.0 3.0 0.00 0.22 0.01 96 1013.0
20260904153110 57 289 0.0 3.0 0.00 0.22 0.01 96 1013.0
20260904152536 57 290 1.0 3.0 0.00 0.22 0.01 96 1012.9
20260904152036 57 275 0.0 1.0 0.00 0.22 0.01 96 1012.8
20260904151600 57 0 0.0 2.0 0.00 0.22 0.01 96 1012.8
20260904151040 57 0 0.0 2.0 0.00 0.22 0.01 96 1012.8
20260904150536 57 275 0.0 2.0 0.00 0.22 0.01 96 1012.7
20260904150056 56 0 0.0 2.0 0.00 0.22 0.01 96 1012.7
20260904145536 56 275 1.0 2.0 0.00 0.22 0.01 96 1012.5
20260904145037 56 0 0.0 2.0 0.00 0.22 0.01 95 1012.4
20260904144554 56 0 0.0 2.0 0.00 0.22 0.01 95 1012.3
20260904144040 56 0 0.0 2.0 0.00 0.22 0.01 95 1012.4
20260904143536 56 275 0.0 2.0 0.00 0.22 0.01 96 1012.3
20260904143051 56 0 0.0 2.0 0.00 0.22 0.01 96 1012.2
20260904142538 56 275 0.0 2.0 0.00 0.22 0.01 96 1012.2
20260904142037 56 275 0.0 2.0 0.00 0.22 0.01 96 1012.1
20260904141610 56 275 0.0 2.0 0.00 0.22 0.01 96 1012.1
20260904141038 56 275 0.0 2.0 0.00 0.22 0.01 95 1012.0
20260904140536 56 275 0.0 2.0 0.00 0.22 0.01 95 1011.9
20260904140100 56 0 0.0 2.0 0.00 0.22 0.01 95 1011.9
20260904135538 56 281 0.0 2.0 0.00 0.22 0.01 95 1012.0
20260904135038 56 281 0.0 2.0 0.00 0.22 0.01 95 1011.9
20260904134554 56 281 1.0 2.0 0.00 0.22 0.01 95 1011.9
20260904134037 56 281 0.0 2.0 0.00 0.22 0.01 95 1011.8
20260904133537 56 0 0.0 2.0 0.00 0.22 0.01 96 1011.8
20260904133054 56 285 0.0 1.0 0.00 0.22 0.01 96 1011.8
20260904132540 56 285 0.0 1.0 0.00 0.22 0.01 96 1011.7
20260904132037 56 0 0.0 2.0 0.00 0.22 0.01 96 1011.7
20260904131612 56 0 0.0 2.0 0.00 0.22 0.01 96 1011.6
20260904131040 56 285 0.0 2.0 0.00 0.22 0.01 96 1011.6
20260904130538 56 0 0.0 2.0 0.00 0.22 0.01 95 1011.6
20260904130059 56 0 0.0 1.0 0.00 0.22 0.01 95 1011.5
20260904125539 56 0 0.0 1.0 0.00 0.22 0.01 95 1011.4
20260904125037 56 11 0.0 1.0 0.00 0.22 0.01 95 1011.5
20260904124553 56 0 0.0 2.0 0.00 0.22 0.01 95 1011.5
20260904124041 56 11 0.0 2.0 0.00 0.22 0.01 95 1011.4
20260904123537 56 11 1.0 2.0 0.00 0.22 0.01 95 1011.4
20260904123054 56 11 0.0 1.0 0.00 0.22 0.01 95 1011.4
20260904122537 56 0 0.0 1.0 0.00 0.22 0.01 95 1011.4
20260904122038 56 0 0.0 1.0 0.00 0.22 0.01 95 1011.5
20260904121554 56 0 0.0 1.0 0.00 0.22 0.01 95 1011.5
20260904121037 56 11 0.0 1.0 0.00 0.22 0.01 95 1011.5
20260904120539 56 0 0.0 1.0 0.00 0.22 0.01 95 1011.5
20260904120057 56 0 0.0 1.0 0.00 0.22 0.01 95 1011.5
20260904115538 56 0 0.0 1.0 0.00 0.22 0.01 95 1011.5
20260904115038 57 0 0.0 1.0 0.00 0.22 0.01 95 1011.4
20260904114555 57 0 0.0 1.0 0.00 0.22 0.01 95 1011.4
20260904114038 57 0 0.0 1.0 0.00 0.22 0.01 95 1011.4
20260904113538 57 0 0.0 1.0 0.00 0.22 0.01 95 1011.4
20260904113056 57 11 0.0 1.0 0.00 0.22 0.01 95 1011.4
20260904112541 57 0 0.0 1.0 0.00 0.22 0.01 95 1011.4
20260904112038 57 0 0.0 1.0 0.00 0.22 0.01 95 1011.5
20260904111555 57 0 0.0 1.0 0.00 0.22 0.01 95 1011.5
20260904111038 57 0 0.0 1.0 0.00 0.22 0.01 95 1011.5
20260904110538 57 11 0.0 1.0 0.00 0.22 0.01 95 1011.5
20260904105537 57 11 0.0 1.0 0.00 0.22 0.01 95 1011.4
20260904105038 57 0 0.0 1.0 0.00 0.22 0.01 95 1011.4
20260904104604 57 0 0.0 2.0 0.00 0.22 0.01 95 1011.4
20260904104039 58 0 0.0 3.0 0.01 0.22 0.01 95 1011.4
20260904103537 58 11 0.0 3.0 0.01 0.22 0.01 95 1011.4
20260904103104 58 11 0.0 2.0 0.01 0.22 0.01 95 1011.4
20260904102539 58 302 0.0 2.0 0.01 0.22 0.01 95 1011.4
20260904102038 58 302 0.0 2.0 0.01 0.22 0.01 95 1011.3
20260904101552 58 302 0.0 2.0 0.01 0.22 0.01 95 1011.3
20260904101038 59 0 0.0 3.0 0.01 0.22 0.01 95 1011.3
20260904100538 59 300 0.0 3.0 0.01 0.22 0.01 95 1011.3
20260904100049 59 286 1.0 3.0 0.01 0.22 0.01 95 1011.4
20260904095541 59 229 1.0 2.0 0.01 0.22 0.01 95 1011.3
20260904095038 59 0 0.0 2.0 0.01 0.22 0.01 95 1011.3
20260904094556 59 0 0.0 2.0 0.01 0.22 0.01 95 1011.3
20260904094037 59 229 1.0 2.0 0.00 0.21 0.00 95 1011.2
20260904093539 59 229 1.0 2.0 0.00 0.21 0.00 95 1011.3
20260904093055 59 229 1.0 2.0 0.00 0.21 0.00 95 1011.2
20260904092537 59 229 1.0 2.0 0.00 0.21 0.00 95 1011.2
20260904092041 59 229 1.0 2.0 0.00 0.21 0.00 95 1011.2
20260904091603 59 229 1.0 2.0 0.00 0.21 0.00 95 1011.2
20260904091038 59 229 1.0 2.0 0.00 0.21 0.00 95 1011.2
20260904090540 59 229 1.0 3.0 0.00 0.21 0.00 95 1011.2
20260904090056 59 229 1.0 3.0 0.00 0.21 0.00 95 1011.2
20260904085538 59 229 1.0 3.0 0.00 0.21 0.00 95 1011.3
20260904085037 59 229 1.0 3.0 0.00 0.21 0.00 95 1011.3
20260904084554 59 229 1.0 2.0 0.00 0.21 0.00 95 1011.3
20260904084038 59 229 1.0 2.0 0.00 0.21 0.00 95 1011.2
20260904083537 59 229 0.0 3.0 0.00 0.21 0.00 95 1011.2
20260904083105 59 229 1.0 3.0 0.00 0.21 0.00 95 1011.3
20260904082539 59 229 1.0 3.0 0.00 0.21 0.00 95 1011.3
20260904082038 59 229 1.0 3.0 0.00 0.21 0.00 95 1011.2
20260904081554 59 229 0.0 3.0 0.00 0.21 0.00 95 1011.2
20260904081037 59 229 1.0 3.0 0.00 0.21 0.00 95 1011.2
20260904080537 59 229 1.0 2.0 0.00 0.21 0.00 95 1011.2
20260904080053 59 229 0.0 3.0 0.00 0.21 0.00 95 1011.3
20260904075538 60 229 1.0 3.0 0.00 0.21 0.00 95 1011.2
20260904075041 60 229 1.0 3.0 0.00 0.21 0.00 95 1011.2
20260904074603 60 229 1.0 3.0 0.00 0.21 0.00 95 1011.2
20260904074038 60 229 1.0 3.0 0.00 0.21 0.00 95 1011.2
20260904073537 59 218 1.0 3.0 0.00 0.21 0.00 95 1011.2
20260904073057 59 218 1.0 3.0 0.00 0.21 0.00 95 1011.1
20260904072538 59 218 1.0 3.0 0.00 0.21 0.00 95 1011.0
20260904072037 59 237 1.0 2.0 0.00 0.21 0.00 95 1011.0
20260904071554 59 237 1.0 2.0 0.00 0.21 0.00 95 1011.0
20260904071037 59 237 1.0 2.0 0.00 0.21 0.00 95 1011.0
20260904070537 59 0 0.0 3.0 0.00 0.21 0.00 95 1011.0
20260904065538 59 237 0.0 2.0 0.00 0.21 0.21 95 1011.0
20260904065038 59 237 0.0 2.0 0.00 0.21 0.21 95 1011.1
20260904064559 59 0 0.0 2.0 0.00 0.21 0.21 95 1011.1
20260904064038 60 237 0.0 2.0 0.00 0.21 0.21 95 1011.1
20260904063538 59 237 0.0 1.0 0.00 0.21 0.21 95 1011.1
20260904063103 59 0 0.0 2.0 0.00 0.21 0.21 95 1011.0
20260904062537 59 0 0.0 2.0 0.00 0.21 0.21 95 1011.0
20260904062037 59 0 0.0 2.0 0.00 0.21 0.21 95 1010.9
20260904061553 59 237 0.0 2.0 0.00 0.21 0.21 95 1010.9
20260904061037 59 237 1.0 2.0 0.00 0.21 0.21 95 1010.9
20260904060538 59 237 1.0 2.0 0.00 0.21 0.21 95 1011.0
20260904060103 60 237 1.0 2.0 0.00 0.21 0.21 95 1011.0
20260904055537 60 237 0.0 2.0 0.00 0.21 0.21 95 1011.1
20260904055041 59 237 0.0 2.0 0.00 0.21 0.21 95 1011.1
20260904054554 59 237 0.0 2.0 0.00 0.21 0.21 94 1011.2
20260904054038 59 237 0.0 2.0 0.00 0.21 0.21 94 1011.3
20260904053538 59 0 0.0 2.0 0.00 0.21 0.21 94 1011.3
20260904053101 60 237 0.0 1.0 0.00 0.21 0.21 94 1011.4
20260904052538 60 0 0.0 1.0 0.00 0.21 0.21 94 1011.5
20260904052038 59 0 0.0 2.0 0.00 0.21 0.21 94 1011.6
20260904051601 60 0 0.0 2.0 0.00 0.21 0.21 94 1011.5
20260904051037 60 235 0.0 2.0 0.00 0.21 0.21 94 1011.6
20260904050537 60 0 0.0 2.0 0.00 0.21 0.21 94 1011.6
20260904050051 60 0 0.0 2.0 0.00 0.21 0.21 94 1011.6
20260904045538 60 240 0.0 2.0 0.00 0.21 0.21 94 1011.6
20260904045037 60 240 0.0 2.0 0.00 0.21 0.21 94 1011.5
20260904044606 60 0 0.0 1.0 0.00 0.21 0.21 94 1011.6
20260904044037 60 0 0.0 1.0 0.00 0.21 0.21 94 1011.5
20260904043549 60 0 0.0 1.0 0.01 0.21 0.21 94 1011.6
20260904043056 60 0 0.0 1.0 0.01 0.21 0.21 94 1011.6
20260904042537 60 0 0.0 1.0 0.02 0.21 0.21 94 1011.4
20260904042038 60 0 0.0 1.0 0.02 0.21 0.21 94 1011.4
20260904041603 60 0 0.0 1.0 0.03 0.21 0.21 94 1011.3
20260904041040 60 0 0.0 1.0 0.04 0.21 0.21 94 1011.2
20260904040538 60 0 0.0 1.0 0.04 0.21 0.21 94 1011.0
20260904040107 60 0 0.0 1.0 0.06 0.21 0.21 94 1011.0
20260904035538 60 240 0.0 2.0 0.07 0.21 0.21 93 1010.9
20260904035037 60 0 0.0 2.0 0.08 0.21 0.21 93 1010.8
20260904034554 60 240 0.0 2.0 0.09 0.21 0.21 93 1010.9
20260904034041 60 240 0.0 2.0 0.10 0.21 0.21 93 1011.0
20260904033537 60 240 0.0 2.0 0.10 0.20 0.20 93 1010.9
20260904033048 60 0 0.0 2.0 0.11 0.20 0.20 93 1011.0
20260904032536 60 240 0.0 2.0 0.11 0.19 0.19 93 1011.0
20260904032037 60 240 1.0 3.0 0.11 0.19 0.19 93 1010.9
20260904031555 60 261 0.0 4.0 0.10 0.18 0.18 93 1010.8
20260904031037 60 268 1.0 5.0 0.10 0.17 0.17 93 1010.8
20260904030538 60 273 1.0 5.0 0.10 0.17 0.17 93 1010.8
20260904030053 60 267 1.0 6.0 0.09 0.15 0.15 93 1010.8
20260904025537 60 304 2.0 6.0 0.08 0.14 0.14 93 1010.7
20260904025039 60 257 2.0 6.0 0.08 0.13 0.13 93 1010.8
20260904024551 60 300 2.0 6.0 0.08 0.12 0.12 93 1010.8
20260904024041 60 296 2.0 6.0 0.08 0.11 0.11 92 1010.8
20260904023536 60 295 1.0 4.0 0.07 0.10 0.10 92 1010.9
20260904023057 60 317 1.0 6.0 0.07 0.09 0.09 92 1010.8
20260904022538 60 294 1.0 7.0 0.07 0.08 0.08 92 1010.8
20260904022040 61 283 2.0 7.0 0.08 0.08 0.08 92 1010.9
20260904021603 61 276 2.0 6.0 0.08 0.08 0.08 92 1010.9
20260904021037 61 259 1.0 4.0 0.07 0.07 0.07 92 1010.8
20260904020537 61 227 1.0 4.0 0.07 0.07 0.07 91 1011.0
20260904020053 61 228 2.0 4.0 0.06 0.06 0.06 91 1010.9
20260904015537 61 0 2.0 6.0 0.05 0.05 0.05 90 1010.9
20260904015037 62 281 2.0 6.0 0.04 0.04 0.04 90 1010.9
20260904014639 62 268 2.0 8.0 0.04 0.04 0.04 90 1011.0
20260904014037 63 231 3.0 10.0 0.03 0.03 0.03 89 1011.0
20260904013536 64 232 4.0 10.0 0.03 0.03 0.03 90 1011.0
20260904013054 65 229 4.0 9.0 0.02 0.02 0.02 90 1011.0
20260904012537 65 206 5.0 10.0 0.01 0.01 0.01 89 1011.0
20260904012038 65 227 5.0 10.0 0.00 0.00 0.00 89 1010.9
20260904011559 65 202 4.0 11.0 0.00 0.00 0.00 88 1010.9
20260904011038 65 173 5.0 13.0 0.00 0.00 0.00 88 1010.9
20260904010538 65 188 6.0 13.0 0.00 0.00 0.00 88 1010.9
20260904010100 65 190 7.0 13.0 0.00 0.00 0.00 87 1010.9
20260904005537 65 205 7.0 13.0 0.00 0.00 0.00 87 1010.9
20260904005037 65 190 6.0 12.0 0.00 0.00 0.00 87 1010.9
20260904004600 65 200 6.0 12.0 0.00 0.00 0.00 87 1010.9
20260904004037 66 207 5.0 13.0 0.00 0.00 0.00 86 1011.0
20260904003537 66 193 7.0 13.0 0.00 0.00 0.00 86 1010.9
20260904003102 66 202 7.0 13.0 0.00 0.00 0.00 86 1010.9
20260904002538 66 194 6.0 13.0 0.00 0.00 0.00 86 1010.9
20260904002038 66 159 6.0 12.0 0.00 0.00 0.00 85 1011.0
20260904001551 66 216 7.0 12.0 0.00 0.00 0.00 85 1011.0
20260904001037 66 183 5.0 12.0 0.00 0.00 0.00 85 1011.1
20260904000540 66 206 5.0 16.0 0.00 0.00 0.00 85 1011.2
20260904000051 66 180 5.0 17.0 0.00 0.00 0.00 84 1011.1
20260903235536 66 202 7.0 19.0 0.00 0.00 0.00 84 1011.1
20260903235037 66 211 7.0 19.0 0.00 0.00 0.00 84 1011.1
20260903234559 66 219 6.0 11.0 0.00 0.00 0.00 83 1011.2
20260903234036 66 200 5.0 12.0 0.00 0.00 0.00 83 1011.3
20260903233538 66 212 7.0 13.0 0.00 0.00 0.00 83 1011.3
20260903233111 67 231 7.0 13.0 0.00 0.00 0.00 81 1011.3
20260903232537 67 204 6.0 9.0 0.00 0.00 0.00 80 1011.5